Location: Bottens
(46.6171°N, 6.6605°E)
Time: 20:40:11
(UTC+00:00)

Meteor 2-6 Rocket - Pass Details

Date: 20 June 2021
Orbit: 805 x 915 km, 81.3° (Epoch: 23 July)

Event Time Altitude Azimuth Distance (km) Brightness Sun altitude
Rises 02:31:39 0° 349° (NNW) 3,549 8.0 -9.4°
Reaches altitude 10° 02:34:09 10° 350° (N) 2,594 7.3 -9.1°
Maximum altitude 02:40:06 85° 80° (E) 898 4.4 -8.4°
Drops below altitude 10° 02:45:50 10° 169° (S) 2,511 6.3 -7.8°
Sets 02:48:14 0° 170° (S) 3,428 7.0 -7.5°
